Tracking 27422 objects as of 30-May-2023
HD Live streaming from Space Station
objects crossing your sky now

PALAPA B1

Track PALAPA B1 now!
PALAPA B1 is classified as:


NORAD ID: 14134
Int'l Code: 1983-059C
Perigee: 35,787.6 km
Apogee: 35,846.2 km
Inclination: 13.0 °
Period: 1,437.3 minutes
Semi major axis: 42187 km
RCS: 1.2604 m2 (large)
Launch date: June 18, 1983
Source: Indonesia (INDO)
Launch site: AIR FORCE EASTERN TEST RANGE (AFETR)
Your satellite tracking list
Your tracking list is empty




NASA's NSSDC Master Catalog

Two Line Element Set (TLE):
1 14134U 83059C   23149.72713490  .00000064  00000-0  00000-0 0  9990
2 14134  13.0033 337.5037 0006955 105.8734  79.5124  1.00189256109624
Source of the keplerian elements: AFSPC